Location: Asheville, NC
(35.6000°N, 82.5500°W)
Time: 23:07:56
(UTC-04:00)

Oscar 19 - Visible Passes

Search period start: 23 April 2018 00:00
Search period end: 03 May 2018 00:00
Orbit: 774 x 790 km, 98.6° (Epoch: 23 April)

Date Brightness Start Highest point End Pass type
(mag) Time Alt. Az. Time Alt. Az. Time Alt. Az.
23 Apr 12.7 02:46:04 10° NNE 02:48:16 24° NE 02:48:16 24° NE visible
23 Apr 12.5 04:26:30 10° NNW 04:28:50 17° NW 04:28:50 17° NW visible
24 Apr 13.2 02:15:00 10° NE 02:16:07 15° NE 02:16:07 15° NE visible
24 Apr 12.1 03:53:42 10° N 03:56:41 28° NNW 03:56:41 28° NNW visible
25 Apr 12.0 03:21:31 10° N 03:24:31 36° N 03:24:31 36° N visible
26 Apr 12.4 02:49:47 10° NNE 02:52:22 28° NE 02:52:22 28° NE visible
26 Apr 12.5 04:30:26 10° NNW 04:32:55 17° NW 04:32:55 17° NW visible
27 Apr 13.0 02:18:37 10° NE 02:20:12 17° NE 02:20:12 17° NE visible
27 Apr 12.0 03:57:31 10° N 04:00:46 29° NW 04:00:46 29° NW visible
28 Apr 11.7 03:25:17 10° N 03:28:36 40° N 03:28:36 40° N visible
29 Apr 12.2 02:53:30 10° NNE 02:56:26 33° NE 02:56:26 33° NE visible
29 Apr 12.5 04:34:23 10° NNW 04:37:00 16° WNW 04:37:00 16° WNW visible
30 Apr 12.9 02:22:15 10° NE 02:24:17 20° ENE 02:24:17 20° ENE visible
30 Apr 11.9 04:01:22 10° N 04:04:50 28° NW 04:04:50 28° NW visible
01 May 11.5 03:29:04 10° N 03:32:40 43° NNW 03:32:40 43° NNW visible
02 May 11.9 02:57:14 10° NNE 03:00:30 38° NE 03:00:30 38° NE visible
02 May 12.6 04:38:23 10° NNW 04:41:04 15° WNW 04:41:04 15° WNW visible
